GW1540 Weather Reports


time (UTC)temp
C
wind
direction
speed
KPH
gust
KPH
rain 1hr
cm
rain 24hr
cm
rain mn
cm
humidity
%
barometer
mb
20260902060034 11 215 0.0 0.0 0.00 0.00 0.00 95 1020.7
20260902053031 10 215 0.0 3.2 0.00 0.03 0.00 95 1020.4
20260902050058 10 215 0.0 3.2 0.00 0.03 0.00 95 1020.1
20260902043050 8 215 0.0 3.2 0.00 0.03 0.00 94 1020.3
20260902040243 8 215 0.0 1.6 0.00 0.03 0.00 94 1020.3
20260902033047 8 215 0.0 0.0 0.00 0.03 0.00 94 1020.2
20260902030054 8 215 0.0 0.0 0.00 0.03 0.00 94 1020.2
20260902023101 8 215 0.0 0.0 0.00 0.03 0.00 93 1020.2
20260902021534 9 215 0.0 0.0 0.00 0.03 0.00 94 1020.1
20260902014559 9 215 0.0 0.0 0.00 0.03 0.00 93 1020.3
20260902011604 10 215 0.0 0.0 0.00 0.03 0.00 93 1020.4
20260902010047 10 215 0.0 0.0 0.00 0.03 0.00 93 1020.5
20260902004534 10 215 0.0 0.0 0.00 0.03 0.00 94 1020.6
20260902001600 10 215 0.0 3.2 0.00 0.03 0.00 93 1020.6
20260901234613 10 215 0.0 0.0 0.00 0.03 0.00 94 1020.7
20260901231604 10 215 0.0 0.0 0.00 0.03 0.00 93 1020.6
20260901230037 11 215 0.0 0.0 0.00 0.03 0.00 93 1020.6
20260901223104 11 215 0.0 3.2 0.00 0.03 0.00 93 1020.4
20260901220200 11 215 0.0 0.0 0.00 0.03 0.00 93 1020.5
20260901213108 12 215 0.0 0.0 0.00 0.03 0.03 92 1020.5
20260901211548 12 215 0.0 0.0 0.00 0.03 0.03 93 1020.4
20260901204538 12 215 0.0 0.0 0.00 0.03 0.03 90 1020.3
20260901201605 12 215 0.0 1.6 0.00 0.03 0.03 90 1020.3
20260901200117 13 215 0.0 0.0 0.00 0.03 0.03 89 1020.3
20260901193054 14 215 0.0 0.0 0.00 0.03 0.03 87 1019.9
20260901191549 15 215 0.0 1.6 0.00 0.03 0.03 87 1020.0
20260901190040 15 215 0.0 3.2 0.00 0.03 0.03 87 1019.6
20260901184543 15 215 1.6 3.2 0.00 0.03 0.03 87 1019.5
20260901183027 16 215 0.0 3.2 0.00 0.03 0.03 86 1019.6
20260901180044 17 215 0.0 3.2 0.00 0.03 0.03 85 1019.5
20260901173052 17 215 1.6 3.2 0.00 0.03 0.03 84 1019.3
20260901170043 18 215 1.6 3.2 0.00 0.03 0.03 83 1019.1
20260901163050 20 215 0.0 3.2 0.00 0.03 0.03 77 1019.3
20260901160100 21 344 0.0 4.8 0.00 0.03 0.03 69 1019.2
20260901154536 21 229 1.6 8.0 0.00 0.03 0.03 69 1019.5
20260901151548 21 261 3.2 9.7 0.00 0.03 0.03 69 1019.4
20260901144557 21 267 0.0 6.4 0.00 0.03 0.03 68 1019.5
20260901141550 21 156 1.6 9.7 0.00 0.03 0.03 66 1019.4
20260901140046 21 239 4.8 12.9 0.00 0.03 0.03 66 1019.5
20260901134538 22 256 1.6 8.0 0.00 0.03 0.03 65 1019.4
20260901131559 22 57 3.2 12.9 0.00 0.03 0.03 66 1019.6
20260901130056 21 221 3.2 12.9 0.00 0.03 0.03 64 1019.6
20260901124533 22 231 3.2 12.9 0.00 0.03 0.03 63 1019.9
20260901121603 22 132 4.8 12.9 0.00 0.03 0.03 59 1019.9
20260901114603 21 18 4.8 9.7 0.00 0.03 0.03 65 1019.9
20260901111608 21 265 3.2 8.0 0.00 0.03 0.03 62 1020.0
20260901104556 21 195 0.0 8.0 0.00 0.03 0.03 65 1020.1
20260901101612 21 216 4.8 12.9 0.00 0.03 0.03 61 1020.4
20260901094547 20 355 1.6 14.5 0.00 0.03 0.03 62 1020.4
20260901091617 20 249 3.2 11.3 0.00 0.03 0.03 70 1020.4
20260901090058 20 206 0.0 12.9 0.00 0.03 0.03 74 1020.4
20260901084536 20 265 3.2 9.7 0.00 0.03 0.03 73 1020.2
20260901081543 20 223 6.4 16.1 0.00 0.03 0.03 70 1020.0
20260901074605 19 284 1.6 4.8 0.00 0.03 0.03 81 1019.6
20260901073100 18 272 1.6 4.8 0.00 0.03 0.03 85 1019.3
20260901071537 17 265 0.0 0.0 0.00 0.03 0.03 90 1019.6
20260901064602 15 265 0.0 0.0 0.03 0.03 0.03 96 1019.4
20260901063057 15 265 0.0 0.0 0.03 0.03 0.03 96 1019.3